Find Starlink 31881

NORAD ID: 59659 Int'l Des: 2024-084 Owner: SPXS Country: US Constellation: starlink operational
LEOCIRCULAR

Current View

Loading 3D Globe...

About Starlink 31881

Starlink 31881 (NORAD 59659) is a starlink constellation satellite (v2 mini) launched May 6, 2024 by SPXS of US. It operates in LEO, CIRCULAR orbit with a mass of 730.00 kg.

Upcoming Passes

Passes for default location (London). Set your location on the main map for personalized predictions.

Altitude History

Loading altitude history...

Two-Line Element Set

1 59659U 24084F 26236.51210929 -.00003236 00000-0 -10807-3 0 9995
2 59659 43.0000 170.1954 0001484 257.7177 102.3508 15.27589630130080
Epoch: Aug 24, 2026 • Age: 11 hours

Current Status

Altitude 494.8 km
Apogee / Perigee N/A
Velocity 7.62 km/s
Sub-Earth Point -41.52°S, 139.5°E
Launch Date May 6, 2024
Age 2.2 years
Type internet

Technical Details

Classification Payload
Mass 730.00 kg
Dry Mass 700.00 kg
Total Mass 730.00 kg
Length 0.30 m
Diameter 4.10 m
Span 29.00 m
Shape Box + pan
Manufacturer SPXS
Bus Type Starlink V2M
Phase Status In Orbit
Owner/State SPXS/US

Most Searched